Volver al catálogo

ONEWEB-0322

ActivoComunicacionesPO
NORAD 49192·PAYLOAD·🇬🇧 United Kingdom

Lanzado Sep 14, 2021 desde Baikonur Cosmodrome

Loading…

Próximos Pases (próximas 24 horas)

TLE

ActualizadoSource: CelesTrak SupGP

Época: Sep 14, 2026, 20:07 UTC

1 49192C 21083G   26257.83833750 -.00000103  00000+0 -28158-3 0  2577
2 49192  87.8912 302.3978 0002059  85.0464  18.5874 13.13467794    16

Sigue ONEWEB-0322 en tiempo real con AllMySat

Download on the App Store